This demonstration page uses our WeatherBlox Daily Observations layout. Learn more.

Left ArrowRight Arrow

44.8408, -93.29828

Hourly Observations for August 24, 2017

Temp ( °F °C ) Dew Point ( °F °C ) Humidity (%) Winds ( mph kmh ) Pressure ( in mb ) Visibility ( mi km ) Precip ( " mm )
12:53 am 00:53 Cloudy 65 18.3 51 10.6 61 61 ENE 7 11 30.09 1019 10 16 0.00 0.00
1:53 am 01:53 Cloudy 64 17.8 52 11.1 65 65 ENE 14 22 30.09 1019 10 16 0.00 0.00
2:53 am 02:53 Cloudy 61 16.1 53 11.7 75 75 E 8 13 30.09 1019 10 16 0.01 0.25
3:53 am 03:53 Cloudy 61 16.1 52 11.1 72 72 ESE 7 11 30.09 1019 10 16 0.00 0.00
4:53 am 04:53 Mostly Cloudy 60 15.6 52 11.1 75 75 E 6 9 30.10 1019 10 16 0.00 0.00
5:53 am 05:53 Mostly Cloudy 60 15.6 51 10.6 72 72 E 7 11 30.11 1020 10 16 0.00 0.00
6:53 am 06:53 Mostly Cloudy 59 15 52 11.1 78 78 E 7 11 30.12 1020 10 16 0.00 0.00
7:53 am 07:53 Mostly Cloudy 60 15.6 52 11.1 75 75 E 9 15 30.14 1021 10 16 0.00 0.00
8:53 am 08:53 Mostly Cloudy 61 16.1 53 11.7 75 75 E 8 13 30.14 1021 10 16 0.00 0.00
9:53 am 09:53 Mostly Sunny 63 17.2 53 11.7 70 70 SE 10 17 30.14 1021 10 16 0.00 0.00
10:53 am 10:53 Mostly Sunny 65 18.3 52 11.1 63 63 SE 12 19 30.14 1021 10 16 0.00 0.00
11:53 am 11:53 Mostly Sunny 68 20 54 12.2 61 61 VRB 7 11 30.13 1020 10 16 0.00 0.00
12:53 pm 12:53 Mostly Sunny 70 21.1 54 12.2 57 57 E 14 22 30.12 1020 10 16 0.00 0.00
1:53 pm 13:53 Mostly Sunny 72 22.2 56 13.3 57 57 E 10 17 30.11 1020 10 16 0.00 0.00
2:53 pm 14:53 Mostly Cloudy 72 22.2 56 13.3 57 57 SE 12 19 30.11 1020 10 16 0.00 0.00
3:53 pm 15:53 Cloudy 72 22.2 56 13.3 57 57 SE 8 13 30.10 1019 10 16 0.00 0.00
4:53 pm 16:53 Mostly Cloudy 72 22.2 55 12.8 55 55 ESE 10 17 30.10 1019 10 16 0.00 0.00
5:53 pm 17:53 Mostly Cloudy 71 21.7 56 13.3 59 59 SE 14 22 30.09 1019 10 16 0.00 0.00
6:53 pm 18:53 Mostly Cloudy 70 21.1 58 14.4 66 66 SE 9 15 30.09 1019 10 16 0.00 0.00
7:53 pm 19:53 Partly Cloudy 68 20 55 12.8 63 63 ESE 10 17 30.10 1019 10 16 0.00 0.00
8:53 pm 20:53 Mostly Cloudy 67 19.4 55 12.8 66 66 E 10 17 30.11 1020 10 16 0.00 0.00
9:53 pm 21:53 Mostly Clear 65 18.3 53 11.7 66 66 ESE 10 17 30.13 1020 10 16 0.00 0.00
10:53 pm 22:53 Mostly Cloudy 64 17.8 52 11.1 65 65 ESE 10 17 30.13 1020 10 16 0.00 0.00
11:53 pm 23:53 Cloudy 64 17.8 52 11.1 65 65 ESE 13 20 30.13 1020 10 16 0.00 0.00

Powered by AerisWeather